Flag for U.S.A. Weather past 2 weeks in Galveston, Texas, U.S.A.

Now
87 °F

Sunny.


Feels Like: 98 °F
Forecast: 81 / 88 °F
Wind: 6 mph from South

Location: Scholes Field

Current Time: Sep 4, 2015 at 12:07:44 PM

Latest Report: Sep 4, 2015 at 10:52 AM


Visibility: 10 mi

Pressure: 29.98 "Hg

Humidity: 69%

Dew point: 76 °F

Location of GalvestonLocation

Historic Weather in Galveston — Graph

°F

Galveston temperature yesterday

Maximum temperature yesterday: 86 °F (at 11:52 AM)
Minimum temperature yesterday: 79 °F (at 2:52 AM)
Average temperature yesterday: 83 °F

Past Weeks' High & Low Weather Summary

 TemperatureHumidityPressure
High94 °F (Aug 24, 2:52 PM)94% (Aug 21, 9:52 AM)30.13 "Hg (Aug 21, 9:52 AM)
Low73 °F (Sep 1, 10:52 AM)42% (Aug 27, 5:52 PM)29.87 "Hg (Sep 3, 6:52 PM)
Average83 °F73%30.00 "Hg
* Reported Aug 20 10:52 AM — Sep 4 10:52 AM, Galveston, Weather by CustomWeather, © 2015

Note: Actual official high and low records may vary slightly from our data, if they occured in-between our weather recording intervals... More about our weather records

Advertising

Galveston weather history for previous 24 hours

 ConditionsComfort  
Time TempWeatherWind HumidityBarometerVisibility
10:52 AM
Fri, Sep 4
87 °FSunny.6 mph69%29.98 "Hg10 mi
9:52 AM83 °FLight rain. Broken clouds.8 mph77%29.96 "Hg10 mi
8:52 AM85 °FBroken clouds.No wind72%29.96 "Hg10 mi
7:52 AM83 °FPartly cloudy.7 mph82%29.94 "Hg10 mi
6:52 AM82 °FPassing clouds.No wind82%29.93 "Hg10 mi
5:52 AM83 °FPassing clouds.5 mph79%29.92 "Hg10 mi
4:52 AM83 °FPassing clouds.10 mph79%29.91 "Hg10 mi
3:52 AM83 °FClear.12 mph79%29.90 "Hg10 mi
2:52 AM83 °FPassing clouds.10 mph77%29.91 "Hg10 mi
1:52 AM83 °FPassing clouds.13 mph79%29.90 "Hg10 mi
12:52 AM82 °FPassing clouds.12 mph82%29.90 "Hg10 mi
11:52 PM
Thu, Sep 3
83 °FClear.13 mph74%29.90 "Hg10 mi
10:52 PM83 °FPassing clouds.13 mph79%29.91 "Hg10 mi
9:52 PM83 °FPassing clouds.10 mph79%29.90 "Hg10 mi
8:52 PM83 °FClear.7 mph79%29.88 "Hg10 mi
7:52 PM84 °FPassing clouds.10 mph74%29.87 "Hg10 mi
6:52 PM85 °FSunny.9 mph72%29.87 "Hg10 mi
5:52 PM86 °FScattered clouds.10 mph75%29.88 "Hg10 mi
4:52 PM86 °FSunny.12 mph75%29.89 "Hg10 mi
3:52 PM86 °FScattered clouds.12 mph75%29.90 "Hg10 mi
2:52 PM86 °FPartly sunny.10 mph75%29.92 "Hg10 mi
1:52 PM86 °FPartly sunny.12 mph75%29.93 "Hg10 mi
12:52 PM86 °FPartly sunny.9 mph72%29.95 "Hg10 mi
Weather by CustomWeather, © 2015

See weather overviewHow to use our weather pages